Location: Croissy-Beaubourg
(48.8283°N, 2.6696°E)
Time: 03:37:09
(UTC+00:00)

Cosmos 2082 - Pass Details

Date: 23 August 2022
Orbit: 832 x 856 km, 71.0° (Epoch: 29 September)

Event Time Altitude Azimuth Distance (km) Brightness Sun altitude
Rises 02:08:30 0° 331° (NNW) 3,412 7.2 -22.6°
Reaches altitude 10° 02:10:57 10° 332° (NNW) 2,477 6.4 -22.4°
Maximum altitude 02:16:39 86° 63° (ENE) 858 3.7 -21.8°
Drops below altitude 10° 02:22:22 10° 152° (SSE) 2,476 5.9 -21.2°
Enters shadow 02:23:21 - 152° (SSE) 2,854 6.2 -21.1°
